Location: Mound City (historical)
(34.0564°N, 117.2656°W)
Time: 02:30:11
(UTC+00:00)

Cosmos 1605 Rocket - Pass Details

Date: 08 September 2024
Orbit: 944 x 1005 km, 82.9° (Epoch: 03 October)

Event Time Altitude Azimuth Distance (km) Brightness Sun altitude
Rises 12:38:39 0° 352° (N) 3,698 7.1 -10.9°
Reaches altitude 10° 12:41:11 10° 352° (N) 2,738 6.4 -10.3°
Maximum altitude 12:47:28 83° 266° (W) 980 4.0 -9.1°
Drops below altitude 10° 12:53:36 10° 179° (S) 2,680 6.2 -7.8°
Sets 12:56:04 0° 178° (S) 3,615 6.9 -7.3°
